World > North America > United States > Wyoming > Medicine Bow  

Medicine Bow, WY Hourly Weather Updates

Feedback E-mail the Weather

Quick Clicks

Medicine Bow, WY Weather Maps

°F °C°F °C
Medicine Bow Weather Map
UTC Time: 4/13/2024, 18:14
Your Time:

Medicine Bow, WY Regional Weather

Expires:202404131900;;682714
ASUS45 KCYS 131810
RWRWY 

WYOMING REGIONAL WEATHER ROUNDUP
NATIONAL WEATHER SERVICE CHEYENNE WY
1200 PM MDT SAT APR 13 2024

NOTE:  "FAIR" INDICATES FEW OR NO CLOUDS BELOW 12,000 FEET
WITH NO SIGNIFICANT WEATHER AND/OR OBSTRUCTIONS TO VISIBILITY.


WYZ021-027>030-104>119-131900-
...SOUTHERN WYOMING...
  
CITY           SKY/WX    TMP DP  RH WIND       PRES   REMARKS
EVANSTON       SUNNY     61  21  21 W17G26    30.12F                  
6HR MIN TEMP:  40; 6HR MAX TEMP:  62;                                

KEMMERER       SUNNY     61  18  18 W12G18    30.12F                  
FORT BRIDGER   SUNNY     63  14  14 W7G20     30.15S                  
ROCK SPRINGS   SUNNY     64  18  17 W12G22    30.10F                  
6HR MIN TEMP:  42; 6HR MAX TEMP:  64;                                

DIXON          SUNNY     66  26  22 S7        30.13F                  
RAWLINS        MOSUNNY   67  20  16 W16G30    30.09F                  
6HR MIN TEMP:  44; 6HR MAX TEMP:  67;                                

SARATOGA       SUNNY     63  21  20 W15G23    30.12S                  
LARAMIE        SUNNY     67  23  19 W12G30    30.08F                  
6HR MIN TEMP:  40; 6HR MAX TEMP:  67;                                

CHEYENNE       MOSUNNY   70  23  17 NW14G29   30.02F                  
TORRINGTON     SUNNY     80  27  14 W18G30    29.89F                  
6HR MIN TEMP:  36; 6HR MAX TEMP:  80;                                

PINE BLUFFS      N/A     68  21  17 NW13      29.98F                  

$$
  

SKY/WX - Weather  TMP - Temperature  DP - Dew Point  RH - Humidity
WIND - Wind Direction/Speed PRES - Barometric Pressure VSB - Visibility
WCI - Wind Chill Index E13G22 Wind - East Wind 13 mph/Gusts of 22 mph

Trending Headlines

Trending Entertainment Headlines

Medicine Bow Radar Loop

Use the map search tool if you want to place a location marker on the radar map...

Medicine Bow Quick Facts

National Two Day Weather Forecast


E-mail the Medicine Bow Weather Forecast

Voice your opinion or tell us about page issues...